Regional Weather Roundup
Issued by NWS

Home | Current Version | Previous Version | Text Only | Print | Product List | Glossary On
Versions: 1 2 3 4 5 6 7 8 9 10 11 12 13 14 15 16 17 18 19 20 21 22 23 24 25 26 27 28 29 30 31 32 33 34 35 36 37 38 39 40 41 42 43 44 45 46 47 48 49 50
000
ASUS44 KBMX 060710
RWRAL

ALABAMA REGIONAL WEATHER ROUNDUP
NATIONAL WEATHER SERVICE BIRMINGHAM AL
200 AM CDT WED MAY 06 2015

NOTE: "FAIR" INDICATES FEW OR NO CLOUDS BELOW 12,000 FEET
WITH NO SIGNIFICANT WEATHER AND/OR OBSTRUCTIONS TO VISIBILITY.

THE REMARK "TC" DENOTES TEMPERATURE IN DEGREES CELSIUS.

ALZ001>011-014-016>018-020-060800-
NORTH ALABAMA

CITY           SKY/WX    TMP DP  RH WIND       PRES   REMARKS
MUSCLE SHOALS  CLEAR     57  54  89 CALM      30.19F
HUNTSVILLE     CLEAR     63  56  78 E3        30.19F
DECATUR        CLEAR     57  55  93 CALM      30.20F
HALEYVILLE       N/A     55  55 100 MISG      30.21F
GADSDEN        CLEAR    N/A N/A N/A CALM      30.19F
$$

ALZ012-013-022-023-030>036-040>044-060800-
WEST CENTRAL ALABAMA

CITY           SKY/WX    TMP DP  RH WIND       PRES   REMARKS
TUSCALOOSA     CLEAR     61  57  87 CALM      30.16F
$$

ALZ015-024>027-033>036-040>044-060800-
CENTRAL ALABAMA

CITY           SKY/WX    TMP DP  RH WIND       PRES   REMARKS
BIRMINGHAM     CLEAR     60  57  89 CALM      30.21F
MONTGOMERY     CLEAR     62  55  77 CALM      30.16F
SHELBY CO ARPT CLEAR     61  58  90 CALM      30.19F
MAXWELL AFB    CLEAR     60  56  87 N3        30.15F
GREENVILLE     FAIR      57  52  83 CALM      30.15F
$$

ALZ019-021-028-029-037-038-045>048-060800-
EAST CENTRAL ALABAMA

CITY           SKY/WX    TMP DP  RH WIND       PRES   REMARKS
ANNISTON       CLEAR     58  55  90 E6        30.21F
ALEXANDER CITY CLEAR     57  52  85 CALM      30.19F
AUBURN         CLEAR    N/A N/A N/A E6        30.20F
$$

ALZ051>064-060800-
SOUTHWEST ALABAMA

CITY           SKY/WX    TMP DP  RH WIND       PRES   REMARKS
MOBILE         PTCLDY    63  61  93 NE3       30.13F
BROOKLEY FIELD MOCLDY    70  64  81 NE5       30.13F
EVERGREEN      PTCLDY    57  55  93 CALM      30.15F
$$

ALZ049-050-065>069-060800-
SOUTHEAST ALABAMA

CITY           SKY/WX    TMP DP  RH WIND       PRES   REMARKS
DOTHAN         CLEAR     63  57  81 E5        30.20S
OZARK          CLEAR     62  55  78 NE6       30.15F
TROY           CLEAR     56  54  93 CALM      30.17F
EUFAULA        FAIR      66  57  72 E6        30.17F
$$


USA.gov is the U.S. government's official web portal to all federal, state and local government web resources and services.